Time,TemperatureF,DewpointF,PressureIn,WindDirection,WindDirectionDegrees,WindSpeedMPH,WindSpeedGustMPH,Humidity,HourlyPrecipIn,Conditions,Clouds,dailyrainin,SolarRadiationWatts/m^2,SoftwareType,DateUTC
2013-05-31 00:12:00,41.0,17.0,-100.00,East,94,3.0,4.0,38,0.00,,,0.00,1.000000,,2013-05-31 06:12:00,
2013-05-31 00:21:00,41.0,17.0,-100.00,East,94,3.0,4.0,38,0.00,,,0.00,1.000000,,2013-05-31 06:21:00,
2013-05-31 00:31:00,41.0,17.0,-100.00,East,94,3.0,4.0,38,0.00,,,0.00,1.000000,,2013-05-31 06:31:00,
2013-05-31 00:41:00,41.0,17.0,-100.00,East,94,3.0,4.0,38,0.00,,,0.00,1.000000,,2013-05-31 06:41:00,
2013-05-31 00:51:00,41.0,17.0,-100.00,East,94,3.0,4.0,38,0.00,,,0.00,1.000000,,2013-05-31 06:51:00,
2013-05-31 01:21:00,43.0,18.0,-100.00,East,94,4.0,6.0,36,0.00,,,0.00,1.000000,,2013-05-31 07:21:00,
2013-05-31 01:32:00,43.0,18.0,-100.00,East,94,4.0,6.0,36,0.00,,,0.00,1.000000,,2013-05-31 07:32:00,
2013-05-31 01:41:00,43.0,18.0,-100.00,East,94,4.0,6.0,36,0.00,,,0.00,1.000000,,2013-05-31 07:41:00,
2013-05-31 01:52:00,43.0,18.0,-100.00,East,94,4.0,6.0,36,0.00,,,0.00,1.000000,,2013-05-31 07:52:00,
2013-05-31 02:21:00,42.0,18.0,-100.00,East,87,5.0,6.0,37,0.00,,,0.00,1.000000,,2013-05-31 08:21:00,
2013-05-31 02:31:00,42.0,18.0,-100.00,East,87,5.0,6.0,37,0.00,,,0.00,1.000000,,2013-05-31 08:31:00,
2013-05-31 02:42:00,42.0,18.0,-100.00,East,87,5.0,6.0,37,0.00,,,0.00,1.000000,,2013-05-31 08:42:00,
2013-05-31 02:51:00,42.0,18.0,-100.00,East,87,5.0,6.0,37,0.00,,,0.00,1.000000,,2013-05-31 08:51:00,
2013-05-31 03:21:00,40.0,18.0,-100.00,ENE,65,4.0,7.0,41,0.00,,,0.00,1.000000,,2013-05-31 09:21:00,
2013-05-31 03:32:00,40.0,18.0,-100.00,ENE,65,4.0,7.0,41,0.00,,,0.00,1.000000,,2013-05-31 09:32:00,
2013-05-31 03:43:00,40.0,18.0,-100.00,ENE,65,4.0,7.0,41,0.00,,,0.00,1.000000,,2013-05-31 09:43:00,
2013-05-31 03:53:00,40.0,18.0,-100.00,ENE,65,4.0,7.0,41,0.00,,,0.00,1.000000,,2013-05-31 09:53:00,
2013-05-31 04:22:00,39.0,18.0,-100.00,SE,132,1.0,5.0,42,0.00,,,0.00,1.000000,,2013-05-31 10:22:00,
2013-05-31 04:33:00,39.0,18.0,-100.00,SE,132,1.0,5.0,42,0.00,,,0.00,1.000000,,2013-05-31 10:33:00,
2013-05-31 04:42:00,39.0,18.0,-100.00,SE,132,1.0,5.0,42,0.00,,,0.00,1.000000,,2013-05-31 10:42:00,
2013-05-31 04:52:00,39.0,18.0,-100.00,SE,132,1.0,5.0,42,0.00,,,0.00,1.000000,,2013-05-31 10:52:00,
2013-05-31 05:22:00,38.0,16.0,-100.00,ESE,116,0.0,3.0,41,0.00,,,0.00,1.000000,,2013-05-31 11:22:00,
2013-05-31 05:32:00,38.0,16.0,-100.00,ESE,116,0.0,3.0,41,0.00,,,0.00,1.000000,,2013-05-31 11:32:00,
2013-05-31 05:42:00,38.0,16.0,-100.00,ESE,116,0.0,3.0,41,0.00,,,0.00,1.000000,,2013-05-31 11:42:00,
2013-05-31 05:52:00,38.0,16.0,-100.00,ESE,116,0.0,3.0,41,0.00,,,0.00,1.000000,,2013-05-31 11:52:00,
2013-05-31 06:21:00,39.0,17.0,-100.00,ENE,68,0.0,3.0,40,0.00,,,0.00,1.000000,,2013-05-31 12:21:00,
2013-05-31 06:31:00,39.0,17.0,-100.00,ENE,68,0.0,3.0,40,0.00,,,0.00,1.000000,,2013-05-31 12:31:00,
2013-05-31 06:41:00,39.0,17.0,-100.00,ENE,68,0.0,3.0,40,0.00,,,0.00,1.000000,,2013-05-31 12:41:00,
2013-05-31 06:51:00,39.0,17.0,-100.00,ENE,68,0.0,3.0,40,0.00,,,0.00,1.000000,,2013-05-31 12:51:00,
2013-05-31 07:21:00,43.0,19.0,-100.00,North,4,3.0,6.0,38,0.00,,,0.00,16.000000,,2013-05-31 13:21:00,
2013-05-31 07:32:00,43.0,19.0,-100.00,North,4,3.0,6.0,38,0.00,,,0.00,16.000000,,2013-05-31 13:32:00,
2013-05-31 07:42:00,43.0,19.0,-100.00,North,4,3.0,6.0,38,0.00,,,0.00,16.000000,,2013-05-31 13:42:00,
2013-05-31 07:52:00,43.0,19.0,-100.00,North,4,3.0,6.0,38,0.00,,,0.00,16.000000,,2013-05-31 13:52:00,
2013-05-31 08:21:00,48.0,22.0,-100.00,West,267,3.0,13.0,35,0.00,,,0.00,91.000000,,2013-05-31 14:21:00,
2013-05-31 08:32:00,48.0,22.0,-100.00,West,267,3.0,13.0,35,0.00,,,0.00,91.000000,,2013-05-31 14:32:00,
2013-05-31 08:41:00,48.0,22.0,-100.00,West,267,3.0,13.0,35,0.00,,,0.00,91.000000,,2013-05-31 14:41:00,
2013-05-31 08:52:00,48.0,22.0,-100.00,West,267,3.0,13.0,35,0.00,,,0.00,91.000000,,2013-05-31 14:52:00,
2013-05-31 09:21:00,55.0,22.0,-100.00,WSW,254,4.0,8.0,27,0.00,,,-99.99,431.000000,,2013-05-31 15:21:00,
2013-05-31 09:33:00,55.0,22.0,-100.00,WSW,254,4.0,8.0,27,0.00,,,-99.99,431.000000,,2013-05-31 15:33:00,
2013-05-31 09:43:00,55.0,22.0,-100.00,WSW,254,4.0,8.0,27,0.00,,,-99.99,431.000000,,2013-05-31 15:43:00,
2013-05-31 09:53:00,55.0,22.0,-100.00,WSW,254,4.0,8.0,27,0.00,,,-99.99,431.000000,,2013-05-31 15:53:00,
2013-05-31 10:12:00,56.0,18.0,-100.00,NW,307,8.0,17.0,22,0.00,,,0.00,629.000000,,2013-05-31 16:12:00,
2013-05-31 10:22:00,56.0,18.0,-100.00,NW,307,8.0,17.0,22,0.00,,,0.00,629.000000,,2013-05-31 16:22:00,
2013-05-31 10:33:00,56.0,18.0,-100.00,NW,307,8.0,17.0,22,0.00,,,0.00,629.000000,,2013-05-31 16:33:00,
2013-05-31 10:42:00,56.0,18.0,-100.00,NW,307,8.0,17.0,22,0.00,,,0.00,629.000000,,2013-05-31 16:42:00,
2013-05-31 10:52:00,56.0,18.0,-100.00,NW,307,8.0,17.0,22,0.00,,,0.00,629.000000,,2013-05-31 16:52:00,
2013-05-31 11:22:00,57.0,15.0,-100.00,West,273,8.0,18.0,19,0.00,,,0.00,821.000000,,2013-05-31 17:22:00,
2013-05-31 11:32:00,57.0,15.0,-100.00,West,273,8.0,18.0,19,0.00,,,0.00,821.000000,,2013-05-31 17:32:00,
2013-05-31 11:42:00,57.0,15.0,-100.00,West,273,8.0,18.0,19,0.00,,,0.00,821.000000,,2013-05-31 17:42:00,
2013-05-31 11:52:00,57.0,15.0,-100.00,West,273,8.0,18.0,19,0.00,,,0.00,821.000000,,2013-05-31 17:52:00,
2013-05-31 12:22:00,59.0,13.0,-100.00,NW,314,9.0,19.0,16,0.00,,,0.00,954.000000,,2013-05-31 18:22:00,
2013-05-31 12:31:00,59.0,13.0,-100.00,NW,314,9.0,19.0,16,0.00,,,0.00,954.000000,,2013-05-31 18:31:00,
2013-05-31 12:41:00,59.0,13.0,-100.00,NW,314,9.0,19.0,16,0.00,,,0.00,954.000000,,2013-05-31 18:41:00,
2013-05-31 12:52:00,59.0,13.0,-100.00,NW,314,9.0,19.0,16,0.00,,,0.00,954.000000,,2013-05-31 18:52:00,
2013-05-31 13:22:00,60.0,11.0,-100.00,West,280,8.0,17.0,14,0.00,,,0.00,1029.000000,,2013-05-31 19:22:00,
2013-05-31 14:22:00,62.0,11.0,-100.00,West,276,7.0,19.0,13,0.00,,,0.00,1050.000000,,2013-05-31 20:22:00,
2013-05-31 14:31:00,62.0,11.0,-100.00,West,276,7.0,19.0,13,0.00,,,0.00,1050.000000,,2013-05-31 20:31:00,
2013-05-31 14:41:00,62.0,11.0,-100.00,West,276,7.0,19.0,13,0.00,,,0.00,1050.000000,,2013-05-31 20:41:00,
2013-05-31 14:51:00,62.0,11.0,-100.00,West,276,7.0,19.0,13,0.00,,,0.00,1050.000000,,2013-05-31 20:51:00,
2013-05-31 15:22:00,63.0,10.0,-100.00,West,279,7.0,18.0,12,0.00,,,0.00,1020.000000,,2013-05-31 21:22:00,
2013-05-31 15:32:00,63.0,10.0,-100.00,West,279,7.0,18.0,12,0.00,,,0.00,1020.000000,,2013-05-31 21:32:00,
2013-05-31 15:42:00,63.0,10.0,-100.00,West,279,7.0,18.0,12,0.00,,,0.00,1020.000000,,2013-05-31 21:42:00,
2013-05-31 15:53:00,63.0,10.0,-100.00,West,279,7.0,18.0,12,0.00,,,0.00,1020.000000,,2013-05-31 21:53:00,
2013-05-31 16:22:00,63.0,10.0,-100.00,West,271,8.0,22.0,12,0.00,,,0.00,933.000000,,2013-05-31 22:22:00,
2013-05-31 16:33:00,63.0,10.0,-100.00,West,271,8.0,22.0,12,0.00,,,0.00,933.000000,,2013-05-31 22:33:00,
2013-05-31 16:42:00,63.0,10.0,-100.00,West,271,8.0,22.0,12,0.00,,,0.00,933.000000,,2013-05-31 22:42:00,
2013-05-31 16:52:00,63.0,10.0,-100.00,West,271,8.0,22.0,12,0.00,,,0.00,933.000000,,2013-05-31 22:52:00,
2013-05-31 17:21:00,64.0,12.0,-100.00,NW,307,7.0,21.0,13,0.00,,,0.00,789.000000,,2013-05-31 23:21:00,
2013-05-31 17:32:00,64.0,12.0,-100.00,NW,307,7.0,21.0,13,0.00,,,0.00,789.000000,,2013-05-31 23:32:00,
2013-05-31 17:42:00,64.0,12.0,-100.00,NW,307,7.0,21.0,13,0.00,,,0.00,789.000000,,2013-05-31 23:42:00,
2013-05-31 17:52:00,64.0,12.0,-100.00,NW,307,7.0,21.0,13,0.00,,,0.00,789.000000,,2013-05-31 23:52:00,
2013-05-31 18:11:00,62.0,11.0,-100.00,WNW,290,7.0,19.0,13,0.00,,,0.00,605.000000,,2013-06-01 00:11:00,
2013-05-31 18:22:00,62.0,11.0,-100.00,WNW,290,7.0,19.0,13,0.00,,,0.00,605.000000,,2013-06-01 00:22:00,
2013-05-31 18:32:00,62.0,11.0,-100.00,WNW,290,7.0,19.0,13,0.00,,,0.00,605.000000,,2013-06-01 00:32:00,
2013-05-31 18:42:00,62.0,11.0,-100.00,WNW,290,7.0,19.0,13,0.00,,,0.00,605.000000,,2013-06-01 00:42:00,
2013-05-31 18:51:00,62.0,11.0,-100.00,WNW,290,7.0,19.0,13,0.00,,,0.00,605.000000,,2013-06-01 00:51:00,
2013-05-31 19:21:00,61.0,8.0,-100.00,WNW,301,5.0,16.0,12,0.00,,,0.00,400.000000,,2013-06-01 01:21:00,
2013-05-31 19:32:00,61.0,8.0,-100.00,WNW,301,5.0,16.0,12,0.00,,,0.00,400.000000,,2013-06-01 01:32:00,
2013-05-31 19:42:00,61.0,8.0,-100.00,WNW,301,5.0,16.0,12,0.00,,,0.00,400.000000,,2013-06-01 01:42:00,
2013-05-31 19:52:00,61.0,8.0,-100.00,WNW,301,5.0,16.0,12,0.00,,,0.00,400.000000,,2013-06-01 01:52:00,
2013-05-31 20:21:00,59.0,8.0,-100.00,West,279,3.0,12.0,13,0.00,,,0.00,193.000000,,2013-06-01 02:21:00,
2013-05-31 20:32:00,59.0,8.0,-100.00,West,279,3.0,12.0,13,0.00,,,0.00,193.000000,,2013-06-01 02:32:00,
2013-05-31 20:42:00,59.0,8.0,-100.00,West,279,3.0,12.0,13,0.00,,,0.00,193.000000,,2013-06-01 02:42:00,
2013-05-31 20:51:00,59.0,8.0,-100.00,West,279,3.0,12.0,13,0.00,,,0.00,193.000000,,2013-06-01 02:51:00,
2013-05-31 21:21:00,49.0,7.0,-100.00,NNW,332,1.0,8.0,18,0.00,,,0.00,21.000000,,2013-06-01 03:21:00,
2013-05-31 21:33:00,49.0,7.0,-100.00,NNW,332,1.0,8.0,18,0.00,,,0.00,21.000000,,2013-06-01 03:33:00,
2013-05-31 21:43:00,49.0,7.0,-100.00,NNW,332,1.0,8.0,18,0.00,,,0.00,21.000000,,2013-06-01 03:43:00,
2013-05-31 21:53:00,49.0,7.0,-100.00,NNW,332,1.0,8.0,18,0.00,,,0.00,21.000000,,2013-06-01 03:53:00,
2013-05-31 22:23:00,46.0,8.0,-100.00,NE,44,3.0,4.0,21,0.00,,,0.00,1.000000,,2013-06-01 04:23:00,
2013-05-31 22:33:00,46.0,8.0,-100.00,NE,44,3.0,4.0,21,0.00,,,0.00,1.000000,,2013-06-01 04:33:00,
2013-05-31 22:42:00,46.0,8.0,-100.00,NE,44,3.0,4.0,21,0.00,,,0.00,1.000000,,2013-06-01 04:42:00,
2013-05-31 22:53:00,46.0,8.0,-100.00,NE,44,3.0,4.0,21,0.00,,,0.00,1.000000,,2013-06-01 04:53:00,
2013-05-31 23:22:00,45.0,4.0,-100.00,NE,36,3.0,5.0,18,0.00,,,0.00,1.000000,,2013-06-01 05:22:00,
2013-05-31 23:32:00,45.0,4.0,-100.00,NE,36,3.0,5.0,18,0.00,,,0.00,1.000000,,2013-06-01 05:32:00,
2013-05-31 23:42:00,45.0,4.0,-100.00,NE,36,3.0,5.0,18,0.00,,,0.00,1.000000,,2013-06-01 05:42:00,
2013-05-31 23:52:00,45.0,4.0,-100.00,NE,36,3.0,5.0,18,0.00,,,0.00,1.000000,,2013-06-01 05:52:00,